Location: Grieser Field
(39.7333°N, 81.7975°W)
Time: 07:05:24
(UTC-04:00)

Meteor 2-1 Rocket - Visible Passes

Search period start: 30 May 2017 00:00
Search period end: 09 June 2017 00:00
Orbit: 831 x 906 km, 81.3° (Epoch: 29 May)

Date Brightness Start Highest point End Pass type
(mag) Time Alt. Az. Time Alt. Az. Time Alt. Az.
30 May 4.3 01:25:25 10° NNW 01:31:17 71° W 01:31:17 71° W visible
30 May 6.2 23:37:06 10° NNE 23:40:46 17° ENE 23:42:18 15° E visible
31 May 4.3 01:18:45 10° NNW 01:24:39 69° W 01:24:41 69° W visible
31 May 6.2 23:30:22 10° NNE 23:34:07 17° ENE 23:35:41 15° E visible
01 Jun 4.3 01:12:05 10° NNW 01:17:58 68° W 01:18:04 68° WSW visible
01 Jun 6.1 23:23:39 10° NNE 23:27:28 17° ENE 23:29:06 16° E visible
02 Jun 4.3 01:05:25 10° NNW 01:11:18 66° W 01:11:29 66° WSW visible
02 Jun 6.1 23:16:55 10° NNE 23:20:48 18° ENE 23:22:31 16° E visible
03 Jun 4.4 00:58:45 10° NNW 01:04:38 65° W 01:04:54 64° WSW visible
03 Jun 6.1 23:10:12 10° NNE 23:14:09 18° ENE 23:15:57 16° E visible
04 Jun 4.4 00:52:06 10° NNW 00:57:57 64° W 00:58:20 62° WSW visible
04 Jun 6.0 23:03:29 10° NNE 23:07:30 18° ENE 23:09:24 16° E visible
05 Jun 4.4 00:45:26 10° NNW 00:51:16 62° W 00:51:47 60° WSW visible
05 Jun 6.0 22:56:46 10° NNE 23:00:51 19° ENE 23:02:52 16° E visible
06 Jun 4.5 00:38:46 10° NNW 00:44:37 61° W 00:45:15 57° SW visible
06 Jun 6.0 22:50:03 10° NNE 22:54:11 19° ENE 22:56:20 16° E visible
07 Jun 4.5 00:32:07 10° NNW 00:37:56 60° W 00:38:44 54° SW visible
07 Jun 5.9 22:43:21 10° NNE 22:47:32 20° ENE 22:49:50 16° E visible
08 Jun 4.6 00:25:27 10° NNW 00:31:15 58° W 00:32:13 52° SW visible
08 Jun 5.9 22:36:38 10° NNE 22:40:53 20° ENE 22:43:20 16° E visible
